Location: Pompeys Pillar
(45.9913°N, 107.9528°W)
Time: 06:30:58
(UTC+00:00)

Tiros 1 - Pass Details

Date: 04 June 2022
Orbit: 629 x 663 km, 48.4° (Epoch: 04 July)

Event Time Altitude Azimuth Distance (km) Brightness Sun altitude
Rises 04:20:58 0° 223° (SW) 2,906 10.4 -11.6°
Reaches altitude 10° 04:23:23 10° 216° (SW) 1,999 9.5 -11.8°
Maximum altitude 04:27:40 40° 147° (SSE) 934 7.5 -12.3°
Drops below altitude 10° 04:31:58 10° 78° (ENE) 2,008 9.4 -12.8°
Sets 04:34:24 0° 71° (ENE) 2,921 10.3 -13.0°
